sat.trackr.live / text

‹ back to catalog

STARLINK-5026

NORAD 57260 · 2023-094AU

PAYLOAD ACTIVE UNKNOWN

§ Identity

Operator
Country
US
Launch date
2023-07-07
Launch site
AFWTR
Launch vehicle
Mass (kg)
RCS (m²)

Purposes: comms

External: N2YO · Heavens-Above · Gunter

§ Orbital elements

Epoch: 2026-05-24T19:30:51.090912Z

Period
94.27 min
Inclination
43.0030°
Eccentricity
0.0001138
Mean motion
15.27574543 rev/d
Perigee alt
482.3 km
Apogee alt
483.8 km
Semi-major
6,861.2 km
B*
1.7106e-5
RAAN
309.8386°
Arg perigee
258.6805°
Mean anomaly
101.3919°
Rev number
15,952

§ Raw data

STARLINK-50261 57260U 23094AU  26144.81309133  .00000209  00000+0  17106-4 0  99922 57260  43.0030 309.8386 0001138 258.6805 101.3919 15.27574543159525

JSON: /api/v1/satellites/57260 · /tle

For live sub-satellite position, see the globe view (requires WebGL).

§ Visibility from observer

Set your observer location to see the next 7 days of passes ≥ 10°. The values pass through the URL so the page stays shareable.

No JS? Fill the form by hand. The geolocation button needs JavaScript.